Flag for Chile Weather past 2 weeks in Temuco, Chile

Now
52 °F

Sprinkles. Passing clouds.


Feels Like: 46 °F
Forecast: 43 / 50 °F
Wind: 17 mph from Northeast

Location: Concepcion Airport

Current Time: Jul 5, 2015 at 12:39:29 AM

Latest Report: Jul 5, 2015 at 12:00 AM


Visibility: 5 mi

Pressure: 29.86 "Hg

Humidity: 88%

Dew point: 48 °F

Location of TemucoLocation

Historic Weather in Temuco — Graph

°F

Temuco temperature yesterday

Maximum temperature yesterday: 52 °F (at 4:00 PM)
Minimum temperature yesterday: 32 °F (at 9:00 AM)
Average temperature yesterday: 43 °F

Past Weeks' High & Low Weather Summary

 TemperatureHumidityPressure
High63 °F (Jun 26, 4:00 PM)100% (Jun 20, 12:00 AM)30.27 "Hg (Jun 20, 12:00 AM)
Low32 °F (Jul 4, 9:00 AM)39% (Jun 22, 3:00 PM)29.86 "Hg (Jun 23, 8:00 AM)
Average50 °F84%30.07 "Hg
* Reported Jun 19 11:00 PM — Jul 4 11:00 PM, Temuco, Weather by CustomWeather, © 2015

Note: Actual official high and low records may vary slightly from our data, if they occured in-between our weather recording intervals... More about our weather records

Advertising

Temuco weather history for previous 24 hours

 ConditionsComfort  
Time TempWeatherWind HumidityBarometerVisibility
11:00 PM
Sat, Jul 4
52 °FSprinkles. Passing clouds.16 mph88%29.89 "HgN/A
10:00 PM52 °FPassing clouds.15 mph88%29.89 "HgN/A
9:00 PM52 °FPartly cloudy.15 mph82%29.89 "HgN/A
8:00 PM52 °FPassing clouds.15 mph82%29.89 "HgN/A
7:00 PM52 °FMostly cloudy.13 mph82%29.92 "HgN/A
6:00 PM52 °FPartly cloudy.12 mph82%29.89 "HgN/A
5:00 PM52 °FPartly sunny.10 mph82%29.92 "HgN/A
4:00 PM52 °FPartly sunny.9 mph77%29.92 "HgN/A
3:00 PM50 °FScattered clouds.5 mph82%29.92 "Hg5 mi
2:00 PM48 °FPartly sunny.3 mph87%29.92 "Hg5 mi
1:00 PM43 °FFog.1 mph93%29.95 "Hg2 mi
12:00 PM39 °FFog.2 mph100%29.95 "Hg2 mi
11:00 AM37 °FFog.3 mph100%29.95 "Hg3 mi
10:00 AM34 °FFog.2 mph100%29.92 "Hg5 mi
9:00 AM32 °FFog.6 mph100%29.92 "Hg4 mi
8:00 AM34 °FFog.5 mph100%29.92 "Hg2 mi
7:00 AM36 °FFog.2 mph93%29.92 "Hg1 mi
6:00 AM36 °FFog.3 mph100%29.92 "Hg2 mi
5:00 AM36 °FSnow. Fog.2 mph93%29.92 "HgN/A
4:00 AM36 °FSnow. Fog.7 mph93%29.92 "HgN/A
3:00 AM37 °FSnow. Fog.3 mph93%29.95 "HgN/A
2:00 AM37 °FSnow. Fog.3 mph100%29.95 "HgN/A
1:00 AM39 °FClear.2 mph93%29.95 "Hg5 mi
12:00 AM41 °FClear.3 mph93%29.98 "Hg5 mi
Weather by CustomWeather, © 2015

See weather overviewHow to use our weather pages